EA4BCR Weather Reports


time (UTC)temp
C
wind
direction
speed
KPH
gust
KPH
rain 1hr
cm
rain 24hr
cm
rain mn
cm
humidity
%
barometer
mb
20260506233055 12 0.0 0.0 0.00 0.00 0.00 78 1012.3
20260506232055 13 0.0 0.0 0.00 0.00 0.00 81 1012.0
20260506231055 13 0.0 0.0 0.00 0.00 0.00 75 1011.7
20260506230055 14 0.0 0.0 0.00 0.00 0.00 75 1011.5
20260506225055 13 0.0 0.0 0.00 0.00 0.00 77 1011.8
20260506224055 13 0.0 0.0 0.00 0.00 0.00 77 1011.6
20260506223055 13 0.0 0.0 0.00 0.00 0.00 78 1011.5
20260506222055 13 0.0 0.0 0.00 0.00 0.00 75 1011.5
20260506221055 14 0.0 0.0 0.00 0.00 0.00 74 1011.3
20260506220055 13 0.0 0.0 0.00 0.00 0.00 76 1011.4
20260506215055 13 0.0 0.0 0.00 0.00 0.00 81 1011.8
20260506214055 13 0.0 0.0 0.00 0.00 0.00 73 1011.3
20260506213055 13 0.0 0.0 0.00 0.00 0.00 72 1011.5
20260506212055 13 0.0 0.0 0.00 0.00 0.00 61 1011.5
20260506211055 13 0.0 0.0 0.00 0.00 0.00 59 1011.1
20260506210055 13 0.0 0.0 0.00 0.00 0.00 57 1010.9
20260506205055 13 0.0 0.0 0.00 0.00 0.00 60 1010.7
20260506204055 13 0.0 0.0 0.00 0.00 0.00 60 1010.8
20260506203055 14 0.0 0.0 0.00 0.00 0.00 52 1010.2
20260506202055 14 0.0 0.0 0.00 0.00 0.00 52 1010.0
20260506201055 15 0.0 0.0 0.00 0.00 0.00 53 1009.8
20260506200055 15 0.0 0.0 0.00 0.00 0.00 53 1009.5
20260506195055 16 0.0 0.0 0.00 0.00 0.00 49 1009.2
20260506194055 15 0.0 0.0 0.00 0.00 0.00 51 1009.2
20260506193055 16 0.0 0.0 0.00 0.00 0.00 45 1008.7
20260506192055 17 0.0 0.0 0.00 0.00 0.00 44 1008.3
20260506191055 17 0.0 0.0 0.00 0.00 0.00 43 1008.2
20260506190055 18 0.0 0.0 0.00 0.00 0.00 41 1007.9
20260506185054 18 0.0 0.0 0.00 0.00 0.00 38 1007.6
20260506184055 18 0.0 0.0 0.00 0.00 0.00 36 1007.3
20260506183054 18 0.0 0.0 0.00 0.00 0.00 35 1007.4
20260506182055 19 0.0 0.0 0.00 0.00 0.00 35 1007.2
20260506181054 20 0.0 0.0 0.00 0.00 0.00 34 1006.9
20260506180055 20 0.0 0.0 0.00 0.00 0.00 36 1006.8
20260506175054 20 0.0 0.0 0.00 0.00 0.00 34 1006.7
20260506174054 20 0.0 0.0 0.00 0.00 0.00 39 1007.0
20260506173055 20 0.0 0.0 0.00 0.00 0.00 38 1006.9
20260506172055 20 0.0 0.0 0.00 0.00 0.00 37 1007.1
20260506171055 20 0.0 0.0 0.00 0.00 0.00 35 1007.0
20260506170054 20 0.0 0.0 0.00 0.00 0.00 35 1007.2
20260506165054 20 0.0 0.0 0.00 0.00 0.00 35 1007.1
20260506164055 20 0.0 0.0 0.00 0.00 0.00 33 1007.2
20260506163054 20 0.0 0.0 0.00 0.00 0.00 32 1006.8
20260506162056 20 0.0 0.0 0.00 0.00 0.00 30 1006.8
20260506161055 20 0.0 0.0 0.00 0.00 0.00 31 1006.9
20260506160054 21 0.0 0.0 0.00 0.00 0.00 31 1006.7
20260506155054 21 0.0 0.0 0.00 0.00 0.00 30 1006.8
20260506154055 21 0.0 0.0 0.00 0.00 0.00 29 1006.7
20260506153054 21 0.0 0.0 0.00 0.00 0.00 30 1006.7
20260506152054 21 0.0 0.0 0.00 0.00 0.00 31 1006.8
20260506151054 21 0.0 0.0 0.00 0.00 0.00 31 1006.8
20260506150055 21 0.0 0.0 0.00 0.00 0.00 30 1006.7
20260506145054 21 0.0 0.0 0.00 0.00 0.00 29 1006.8
20260506144054 20 0.0 0.0 0.00 0.00 0.00 33 1007.3
20260506143054 21 0.0 0.0 0.00 0.00 0.00 34 1007.2
20260506142055 21 0.0 0.0 0.00 0.00 0.00 32 1007.5
20260506141054 21 0.0 0.0 0.00 0.00 0.00 30 1007.6
20260506140054 21 0.0 0.0 0.00 0.00 0.00 31 1007.4
20260506135054 20 0.0 0.0 0.00 0.00 0.00 34 1008.4
20260506134054 20 0.0 0.0 0.00 0.00 0.00 33 1008.3
20260506133054 21 0.0 0.0 0.00 0.00 0.00 31 1007.8
20260506132054 22 0.0 0.0 0.00 0.00 0.00 32 1007.8
20260506131054 21 0.0 0.0 0.00 0.00 0.00 30 1007.9
20260506130054 21 0.0 0.0 0.00 0.00 0.00 31 1008.0
20260506125054 21 0.0 0.0 0.00 0.00 0.00 33 1008.2
20260506124054 20 0.0 0.0 0.00 0.00 0.00 33 1008.7
20260506123054 21 0.0 0.0 0.00 0.00 0.00 32 1008.6
20260506122054 20 0.0 0.0 0.00 0.00 0.00 35 1008.9
20260506121054 19 0.0 0.0 0.00 0.00 0.00 34 1009.3
20260506120054 21 0.0 0.0 0.00 0.00 0.00 33 1008.7
20260506115054 20 0.0 0.0 0.00 0.00 0.00 36 1009.0
20260506114055 19 0.0 0.0 0.00 0.00 0.00 34 1009.5
20260506113054 19 0.0 0.0 0.00 0.00 0.00 35 1009.6
20260506112054 18 0.0 0.0 0.00 0.00 0.00 36 1009.8
20260506111054 18 0.0 0.0 0.00 0.00 0.00 37 1010.3
20260506110054 18 0.0 0.0 0.00 0.00 0.00 38 1010.2
20260506105054 20 0.0 0.0 0.00 0.00 0.00 36 1009.8
20260506104054 20 0.0 0.0 0.00 0.00 0.00 33 1009.6
20260506103054 18 0.0 0.0 0.00 0.00 0.00 37 1010.3
20260506102054 18 0.0 0.0 0.00 0.00 0.00 35 1010.2
20260506101054 18 0.0 0.0 0.00 0.00 0.00 37 1010.2
20260506100055 18 0.0 0.0 0.00 0.00 0.00 36 1010.2
20260506095054 18 0.0 0.0 0.00 0.00 0.00 41 1010.4
20260506094054 18 0.0 0.0 0.00 0.00 0.00 40 1010.4
20260506093054 16 0.0 0.0 0.00 0.00 0.00 43 1010.9
20260506092055 17 0.0 0.0 0.00 0.00 0.00 41 1010.8
20260506091054 16 0.0 0.0 0.00 0.00 0.00 45 1011.2
20260506090054 16 0.0 0.0 0.00 0.00 0.00 43 1011.2
20260506085054 15 0.0 0.0 0.00 0.00 0.00 48 1011.4
20260506084054 15 0.0 0.0 0.00 0.00 0.00 45 1011.4
20260506083054 14 0.0 0.0 0.00 0.00 0.00 57 1011.8
20260506082054 13 0.0 0.0 0.00 0.00 0.00 57 1012.0
20260506081054 13 0.0 0.0 0.00 0.00 0.00 61 1012.4
20260506073056 11 0.0 0.0 0.00 0.00 0.00 74 1013.3
20260506072100 10 0.0 0.0 0.00 0.00 0.00 75 1013.5
20260506071054 10 0.0 0.0 0.00 0.00 0.00 76 1013.5
20260506062054 7 0.0 0.0 0.00 0.00 0.00 85 1014.6
20260506061056 7 0.0 0.0 0.00 0.00 0.00 85 1014.8
20260506051054 6 0.0 0.0 0.00 0.00 0.00 85 1015.0
20260506045054 6 0.0 0.0 0.00 0.00 0.00 84 1015.0
20260506044054 6 0.0 0.0 0.00 0.00 0.00 83 1014.8
20260506043054 6 0.0 0.0 0.00 0.00 0.00 84 1014.8
20260506042054 6 0.0 0.0 0.00 0.00 0.00 86 1014.9
20260506041055 6 0.0 0.0 0.00 0.00 0.00 83 1014.6
20260506040054 6 0.0 0.0 0.00 0.00 0.00 84 1014.7
20260506035055 7 0.0 0.0 0.00 0.00 0.00 83 1014.4
20260506034054 7 0.0 0.0 0.00 0.00 0.00 83 1014.5
20260506033054 7 0.0 0.0 0.00 0.00 0.00 85 1014.6
20260506032054 7 0.0 0.0 0.00 0.00 0.00 83 1014.5
20260506031054 7 0.0 0.0 0.00 0.00 0.00 85 1014.5
20260506030054 7 0.0 0.0 0.00 0.00 0.00 84 1014.5
20260506025054 7 0.0 0.0 0.00 0.00 0.00 84 1014.7
20260506024054 7 0.0 0.0 0.00 0.00 0.00 85 1014.6
20260506023054 7 0.0 0.0 0.00 0.00 0.00 83 1014.4
20260506022054 8 0.0 0.0 0.00 0.00 0.00 79 1014.1
20260506021054 8 0.0 0.0 0.00 0.00 0.00 77 1014.0
20260506020054 8 0.0 0.0 0.00 0.00 0.00 79 1014.2
20260506015054 8 0.0 0.0 0.00 0.00 0.00 77 1014.1
20260506014054 8 0.0 0.0 0.00 0.00 0.00 79 1014.0
20260506013054 8 0.0 0.0 0.00 0.00 0.00 78 1014.1
20260506012054 8 0.0 0.0 0.00 0.00 0.00 76 1013.9
20260506011054 8 0.0 0.0 0.00 0.00 0.00 77 1014.0
20260506010054 8 0.0 0.0 0.00 0.00 0.00 76 1014.2
20260506005054 8 0.0 0.0 0.00 0.00 0.00 75 1014.1
20260506004054 8 0.0 0.0 0.00 0.00 0.00 74 1014.2
20260506003055 9 0.0 0.0 0.00 0.00 0.00 73 1014.0
20260506002054 9 0.0 0.0 0.00 0.00 0.00 73 1014.1
20260506001054 8 0.0 0.0 0.00 0.00 0.00 72 1014.2
20260506000054 9 0.0 0.0 0.00 0.00 0.00 75 1014.2
20260505235054 10 0.0 0.0 0.00 0.00 0.00 70 1014.0
20260505234054 10 0.0 0.0 0.00 0.00 0.00 66 1013.7